,,,PA_Meas_PMT16A,,PR_Meas_QMR101_102,,RH_Meas_QMH101,,SR_Meas_QMS101,,TA_Meas_QMH101,,GenWind,,GenWind,
date,time,status,PA,status,PR,status,RH,status,SR,status,TA,status,DirAvg,status,SpdAvg,
2011-10-28, 00:00:04,VALID,1006.462,VALID,0.0,VALID,76.54,VALID,1.906,VALID,28.059,VALID,229.0,VALID,0.658,
2011-10-28, 00:01:04,VALID,1006.429,VALID,0.0,VALID,76.685,VALID,1.457,VALID,28.04,VALID,230.0,VALID,0.262,
2011-10-28, 00:02:04,VALID,1006.407,VALID,0.0,VALID,76.799,VALID,1.233,VALID,28.02,VALID,272.0,VALID,1.332,
2011-10-28, 00:03:04,VALID,1006.424,VALID,0.0,VALID,76.875,VALID,1.121,VALID,28.02,VALID,213.0,VALID,1.279,
2011-10-28, 00:04:04,VALID,1006.426,VALID,0.0,VALID,77.165,VALID,0.897,VALID,27.981,VALID,213.0,VALID,0.557,
2011-10-28, 00:05:04,VALID,1006.461,VALID,0.0,VALID,77.348,VALID,0.785,VALID,27.96,VALID,311.0,VALID,0.856,
2011-10-28, 00:06:04,VALID,1006.49,VALID,0.0,VALID,77.615,VALID,0.561,VALID,27.962,VALID,321.0,VALID,0.177,
2011-10-28, 00:07:04,VALID,1006.496,VALID,0.0,VALID,77.653,VALID,0.448,VALID,27.923,VALID,154.0,VALID,0.264,
2011-10-28, 00:08:04,VALID,1006.531,VALID,0.0,VALID,77.745,VALID,0.336,VALID,27.903,VALID,180.0,VALID,0.421,
2011-10-28, 00:09:04,VALID,1006.528,VALID,0.0,VALID,77.836,VALID,0.224,VALID,27.884,VALID,204.0,VALID,0.334,
2011-10-28, 00:10:04,VALID,1006.497,VALID,0.0,VALID,78.133,VALID,0.224,VALID,27.884,VALID,315.0,VALID,0.313,
2011-10-28, 00:11:04,VALID,1006.457,VALID,0.0,VALID,78.438,VALID,0.112,VALID,27.864,VALID,270.0,VALID,0.535,
2011-10-28, 00:12:04,VALID,1006.412,VALID,0.0,VALID,78.446,VALID,0.112,VALID,27.825,VALID,220.0,VALID,0.151,
2011-10-28, 00:13:04,VALID,1006.388,VALID,0.0,VALID,78.553,VALID,0.0,VALID,27.825,VALID,228.0,VALID,0.24,
2011-10-28, 00:14:04,VALID,1006.39,VALID,0.0,VALID,78.629,VALID,0.112,VALID,27.806,VALID,217.0,VALID,0.499,
2011-10-28, 00:15:04,VALID,1006.439,VALID,0.0,VALID,78.744,VALID,0.0,VALID,27.806,VALID,335.0,VALID,0.432,
2011-10-28, 00:16:04,VALID,1006.518,VALID,0.0,VALID,78.675,VALID,0.0,VALID,27.786,VALID,209.0,VALID,0.838,
2011-10-28, 00:17:04,VALID,1006.574,VALID,0.0,VALID,78.69,VALID,0.0,VALID,27.786,VALID,211.0,VALID,0.911,
2011-10-28, 00:18:04,VALID,1006.632,VALID,0.0,VALID,78.652,VALID,0.0,VALID,27.806,VALID,247.0,VALID,0.228,
2011-10-28, 00:19:04,VALID,1006.655,VALID,0.0,VALID,78.896,VALID,0.0,VALID,27.827,VALID,227.0,VALID,0.434,
2011-10-28, 00:20:04,VALID,1006.642,VALID,0.0,VALID,78.599,VALID,0.0,VALID,27.806,VALID,209.0,VALID,0.602,
2011-10-28, 00:21:04,VALID,1006.637,VALID,0.0,VALID,78.759,VALID,0.0,VALID,27.806,VALID,209.0,VALID,0.428,
2011-10-28, 00:22:04,VALID,1006.58,VALID,0.0,VALID,78.728,VALID,0.0,VALID,27.825,VALID,210.0,VALID,0.523,
2011-10-28, 00:23:04,VALID,1006.534,VALID,0.0,VALID,78.721,VALID,0.0,VALID,27.806,VALID,245.0,VALID,0.898,
2011-10-28, 00:24:04,VALID,1006.518,VALID,0.0,VALID,78.82,VALID,0.0,VALID,27.806,VALID,212.0,VALID,0.4,
2011-10-28, 00:25:04,VALID,1006.513,VALID,0.0,VALID,78.789,VALID,0.0,VALID,27.825,VALID,239.0,VALID,0.376,
2011-10-28, 00:26:04,VALID,1006.544,VALID,0.0,VALID,78.843,VALID,0.0,VALID,27.806,VALID,266.0,VALID,0.43,
2011-10-28, 00:27:04,VALID,1006.577,VALID,0.0,VALID,78.805,VALID,0.0,VALID,27.806,VALID,266.0,VALID,0.219,
2011-10-28, 00:28:04,VALID,1006.614,VALID,0.0,VALID,79.049,VALID,0.0,VALID,27.806,VALID,261.0,VALID,0.487,
2011-10-28, 00:29:04,VALID,1006.67,VALID,0.0,VALID,79.14,VALID,0.0,VALID,27.786,VALID,261.0,VALID,0.073,
2011-10-28, 00:30:04,VALID,1006.695,VALID,0.0,VALID,79.361,VALID,0.0,VALID,27.767,VALID,251.0,VALID,0.227,
2011-10-28, 00:31:04,VALID,1006.693,VALID,0.0,VALID,79.445,VALID,0.0,VALID,27.767,VALID,215.0,VALID,0.749,
2011-10-28, 00:32:04,VALID,1006.685,VALID,0.0,VALID,80.543,VALID,0.0,VALID,27.747,VALID,251.0,VALID,0.054,
2011-10-28, 00:33:04,VALID,1006.674,VALID,0.0,VALID,80.841,VALID,0.0,VALID,27.708,VALID,249.0,VALID,0.352,
2011-10-28, 00:34:05,VALID,1006.663,VALID,0.0,VALID,80.963,VALID,0.0,VALID,27.65,VALID,212.0,VALID,0.83,
2011-10-28, 00:35:05,VALID,1006.706,VALID,0.0,VALID,81.207,VALID,0.0,VALID,27.613,VALID,209.0,VALID,1.081,
2011-10-28, 00:36:05,VALID,1006.702,VALID,0.0,VALID,82.244,VALID,0.0,VALID,27.552,VALID,246.0,VALID,0.505,
2011-10-28, 00:37:05,VALID,1006.75,VALID,0.0,VALID,82.549,VALID,0.0,VALID,27.513,VALID,202.0,VALID,0.951,
2011-10-28, 00:38:05,VALID,1006.814,VALID,0.0,VALID,83.319,VALID,0.0,VALID,27.513,VALID,201.0,VALID,1.27,
2011-10-28, 00:39:05,VALID,1006.87,VALID,0.0,VALID,83.464,VALID,0.0,VALID,27.474,VALID,217.0,VALID,0.443,
2011-10-28, 00:40:05,VALID,1006.937,VALID,0.0,VALID,83.899,VALID,0.0,VALID,27.433,VALID,209.0,VALID,0.854,
2011-10-28, 00:41:05,VALID,1006.96,VALID,0.0,VALID,83.449,VALID,0.0,VALID,27.435,VALID,238.0,VALID,1.34,
2011-10-28, 00:42:05,VALID,1007.039,VALID,0.0,VALID,85.454,VALID,0.112,VALID,27.414,VALID,211.0,VALID,0.713,
2011-10-28, 00:43:05,VALID,1007.082,VALID,0.0,VALID,85.225,VALID,0.0,VALID,27.416,VALID,226.0,VALID,0.795,
2011-10-28, 00:44:05,VALID,1007.13,VALID,0.0,VALID,86.385,VALID,0.112,VALID,27.396,VALID,232.0,VALID,0.451,
2011-10-28, 00:45:05,VALID,1007.133,VALID,0.0,VALID,87.063,VALID,0.112,VALID,27.357,VALID,204.0,VALID,0.674,
2011-10-28, 00:46:05,VALID,1007.168,VALID,0.0,VALID,87.132,VALID,0.0,VALID,27.338,VALID,213.0,VALID,0.595,
2011-10-28, 00:47:05,VALID,1007.191,VALID,0.0,VALID,87.261,VALID,0.112,VALID,27.316,VALID,223.0,VALID,0.278,
2011-10-28, 00:48:05,VALID,1007.181,VALID,0.0,VALID,87.117,VALID,0.112,VALID,27.318,VALID,198.0,VALID,0.938,
2011-10-28, 00:49:05,VALID,1007.221,VALID,0.0,VALID,86.308,VALID,0.112,VALID,27.318,VALID,274.0,VALID,1.218,
2011-10-28, 00:50:05,VALID,1007.232,VALID,0.0,VALID,85.729,VALID,0.0,VALID,27.297,VALID,237.0,VALID,1.134,
2011-10-28, 00:51:05,VALID,1007.249,VALID,0.0,VALID,85.782,VALID,0.0,VALID,27.299,VALID,202.0,VALID,0.691,
2011-10-28, 00:52:05,VALID,1007.316,VALID,0.0,VALID,87.162,VALID,0.112,VALID,27.318,VALID,214.0,VALID,0.228,
2011-10-28, 00:53:05,VALID,1007.344,VALID,0.0,VALID,88.665,VALID,0.112,VALID,27.299,VALID,214.0,VALID,0.42,
2011-10-28, 00:54:05,VALID,1007.366,VALID,0.0,VALID,85.752,VALID,0.0,VALID,27.279,VALID,232.0,VALID,0.788,
2011-10-28, 00:55:05,VALID,1007.378,VALID,0.0,VALID,86.423,VALID,0.0,VALID,27.318,VALID,229.0,VALID,1.016,
2011-10-28, 00:56:05,VALID,1007.39,VALID,0.0,VALID,86.263,VALID,0.112,VALID,27.299,VALID,225.0,VALID,0.416,
2011-10-28, 00:57:05,VALID,1007.441,VALID,0.0,VALID,86.064,VALID,0.0,VALID,27.299,VALID,219.0,VALID,1.59,
2011-10-28, 00:58:05,VALID,1007.442,VALID,0.0,VALID,86.781,VALID,0.112,VALID,27.277,VALID,228.0,VALID,0.655,
2011-10-28, 00:59:05,VALID,1007.443,VALID,0.0,VALID,87.185,VALID,0.0,VALID,27.279,VALID,210.0,VALID,0.637,
2011-10-28, 01:00:05,VALID,1007.443,VALID,0.0,VALID,87.65,VALID,0.112,VALID,27.26,VALID,222.0,VALID,0.742,
2011-10-28, 01:01:05,VALID,1007.408,VALID,0.0,VALID,87.536,VALID,0.0,VALID,27.26,VALID,267.0,VALID,0.636,
2011-10-28, 01:02:05,VALID,1007.394,VALID,0.0,VALID,87.445,VALID,0.0,VALID,27.238,VALID,216.0,VALID,0.923,
2011-10-28, 01:03:05,VALID,1007.402,VALID,0.0,VALID,88.154,VALID,0.112,VALID,27.24,VALID,206.0,VALID,0.864,
2011-10-28, 01:04:05,VALID,1007.4,VALID,0.0,VALID,88.192,VALID,0.112,VALID,27.24,VALID,232.0,VALID,0.848,
2011-10-28, 01:05:05,VALID,1007.411,VALID,0.0,VALID,88.832,VALID,0.0,VALID,27.24,VALID,288.0,VALID,0.512,
2011-10-28, 01:06:05,VALID,1007.425,VALID,0.0,VALID,88.352,VALID,0.112,VALID,27.199,VALID,241.0,VALID,0.714,
2011-10-28, 01:07:05,VALID,1007.428,VALID,0.0,VALID,87.711,VALID,0.0,VALID,27.201,VALID,224.0,VALID,1.015,
2011-10-28, 01:08:05,VALID,1007.467,VALID,0.0,VALID,87.971,VALID,0.112,VALID,27.201,VALID,187.0,VALID,0.283,
2011-10-28, 01:09:05,VALID,1007.519,VALID,0.0,VALID,89.831,VALID,0.112,VALID,27.18,VALID,187.0,VALID,0.087,
2011-10-28, 01:10:05,VALID,1007.568,VALID,0.0,VALID,89.862,VALID,0.0,VALID,27.182,VALID,187.0,VALID,0.384,
2011-10-28, 01:11:05,VALID,1007.591,VALID,0.0,VALID,88.985,VALID,0.112,VALID,27.162,VALID,182.0,VALID,0.471,
2011-10-28, 01:12:05,VALID,1007.644,VALID,0.0,VALID,89.542,VALID,0.0,VALID,27.162,VALID,204.0,VALID,1.111,
2011-10-28, 01:13:05,VALID,1007.7,VALID,0.0,VALID,88.26,VALID,0.0,VALID,27.162,VALID,234.0,VALID,1.171,
2011-10-28, 01:14:05,VALID,1007.712,VALID,0.0,VALID,86.751,VALID,0.112,VALID,27.182,VALID,201.0,VALID,1.728,
2011-10-28, 01:15:05,VALID,1007.749,VALID,0.0,VALID,87.765,VALID,0.0,VALID,27.201,VALID,212.0,VALID,1.091,
2011-10-28, 01:16:05,VALID,1007.784,VALID,0.0,VALID,88.718,VALID,0.112,VALID,27.201,VALID,212.0,VALID,0.2,
2011-10-28, 01:17:05,VALID,1007.824,VALID,0.0,VALID,86.819,VALID,0.112,VALID,27.182,VALID,218.0,VALID,0.487,
2011-10-28, 01:18:05,VALID,1007.845,VALID,0.0,VALID,87.445,VALID,0.112,VALID,27.16,VALID,246.0,VALID,0.745,
2011-10-28, 01:19:05,VALID,1007.823,VALID,0.0,VALID,87.231,VALID,0.0,VALID,27.182,VALID,246.0,VALID,0.497,
2011-10-28, 01:20:05,VALID,1007.852,VALID,0.0,VALID,86.316,VALID,0.0,VALID,27.182,VALID,240.0,VALID,0.658,
2011-10-28, 01:21:05,VALID,1007.852,VALID,0.0,VALID,86.263,VALID,0.112,VALID,27.182,VALID,246.0,VALID,0.935,
2011-10-28, 01:22:05,VALID,1007.865,VALID,0.0,VALID,85.988,VALID,0.0,VALID,27.182,VALID,220.0,VALID,0.43,
2011-10-28, 01:23:05,VALID,1007.858,VALID,0.0,VALID,86.552,VALID,0.0,VALID,27.162,VALID,265.0,VALID,0.557,
2011-10-28, 01:24:05,VALID,1007.859,VALID,0.0,VALID,86.651,VALID,0.112,VALID,27.162,VALID,213.0,VALID,0.32,
2011-10-28, 01:25:05,VALID,1007.846,VALID,0.0,VALID,86.354,VALID,0.112,VALID,27.141,VALID,244.0,VALID,1.205,
2011-10-28, 01:26:05,VALID,1007.883,VALID,0.0,VALID,87.384,VALID,0.112,VALID,27.162,VALID,227.0,VALID,0.377,
2011-10-28, 01:27:05,VALID,1007.91,VALID,0.0,VALID,88.527,VALID,0.0,VALID,27.143,VALID,221.0,VALID,0.271,
2011-10-28, 01:28:05,VALID,1007.895,VALID,0.0,VALID,88.116,VALID,0.112,VALID,27.102,VALID,265.0,VALID,0.761,
2011-10-28, 01:29:05,VALID,1007.943,VALID,0.0,VALID,89.13,VALID,0.112,VALID,27.104,VALID,256.0,VALID,0.129,
2011-10-28, 01:30:05,VALID,1007.924,VALID,0.0,VALID,90.167,VALID,0.112,VALID,27.084,VALID,226.0,VALID,0.229,
2011-10-28, 01:31:05,VALID,1007.939,VALID,0.0,VALID,90.998,VALID,0.0,VALID,27.065,VALID,211.0,VALID,0.35,
2011-10-28, 01:32:05,VALID,1007.951,VALID,0.0,VALID,90.495,VALID,0.112,VALID,27.024,VALID,206.0,VALID,0.44,
2011-10-28, 01:33:05,VALID,1007.991,VALID,0.0,VALID,90.228,VALID,0.0,VALID,27.026,VALID,225.0,VALID,0.53,
2011-10-28, 01:34:05,VALID,1007.998,VALID,0.0,VALID,90.251,VALID,0.0,VALID,27.026,VALID,215.0,VALID,0.653,
2011-10-28, 01:35:05,VALID,1008.045,VALID,0.0,VALID,90.327,VALID,0.112,VALID,27.026,VALID,256.0,VALID,0.579,
2011-10-28, 01:36:05,VALID,1008.09,VALID,0.0,VALID,90.929,VALID,0.112,VALID,27.026,VALID,241.0,VALID,0.064,
2011-10-28, 01:37:05,VALID,1008.11,VALID,0.0,VALID,91.158,VALID,0.112,VALID,27.006,VALID,261.0,VALID,0.286,
2011-10-28, 01:38:05,VALID,1008.167,VALID,0.0,VALID,91.616,VALID,0.112,VALID,26.965,VALID,261.0,VALID,0.057,
2011-10-28, 01:39:05,VALID,1008.174,VALID,0.0,VALID,91.418,VALID,0.112,VALID,26.987,VALID,215.0,VALID,0.451,
2011-10-28, 01:40:05,VALID,1008.184,VALID,0.0,VALID,91.448,VALID,0.0,VALID,26.987,VALID,282.0,VALID,0.739,
2011-10-28, 01:41:05,VALID,1008.191,VALID,0.0,VALID,92.63,VALID,0.112,VALID,26.965,VALID,282.0,VALID,0.102,
2011-10-28, 01:42:05,VALID,1008.232,VALID,0.0,VALID,93.476,VALID,0.0,VALID,26.967,VALID,282.0,VALID,0.192,
2011-10-28, 01:43:05,VALID,1008.228,VALID,0.0,VALID,93.263,VALID,0.112,VALID,26.967,VALID,207.0,VALID,0.779,
2011-10-28, 01:44:05,VALID,1008.235,VALID,0.0,VALID,92.203,VALID,0.112,VALID,26.967,VALID,197.0,VALID,0.815,
2011-10-28, 01:45:05,VALID,1008.241,VALID,0.0,VALID,91.158,VALID,0.112,VALID,26.987,VALID,246.0,VALID,0.836,
2011-10-28, 01:46:05,VALID,1008.242,VALID,0.0,VALID,91.227,VALID,0.0,VALID,26.987,VALID,206.0,VALID,0.462,
2011-10-28, 01:47:05,VALID,1008.241,VALID,0.0,VALID,91.608,VALID,0.0,VALID,26.987,VALID,205.0,VALID,0.759,
2011-10-28, 01:48:05,VALID,1008.249,VALID,0.0,VALID,91.7,VALID,0.112,VALID,26.987,VALID,202.0,VALID,0.419,
2011-10-28, 01:49:05,VALID,1008.207,VALID,0.0,VALID,91.326,VALID,0.112,VALID,26.987,VALID,244.0,VALID,0.423,
2011-10-28, 01:50:05,VALID,1008.208,VALID,0.0,VALID,90.968,VALID,0.0,VALID,26.987,VALID,252.0,VALID,0.327,
2011-10-28, 01:51:05,VALID,1008.204,VALID,0.0,VALID,92.508,VALID,0.0,VALID,26.987,VALID,251.0,VALID,0.496,
2011-10-28, 01:52:05,VALID,1008.214,VALID,0.0,VALID,92.104,VALID,0.0,VALID,26.948,VALID,252.0,VALID,0.327,
2011-10-28, 01:53:05,VALID,1008.236,VALID,0.0,VALID,92.355,VALID,0.112,VALID,26.926,VALID,252.0,VALID,0.0,
2011-10-28, 01:54:05,VALID,1008.224,VALID,0.0,VALID,93.469,VALID,0.0,VALID,26.928,VALID,252.0,VALID,0.271,
2011-10-28, 01:55:05,VALID,1008.252,VALID,0.0,VALID,93.911,VALID,0.112,VALID,26.887,VALID,252.0,VALID,0.0,
2011-10-28, 01:56:05,VALID,1008.273,VALID,0.0,VALID,94.658,VALID,0.112,VALID,26.889,VALID,252.0,VALID,0.0,
2011-10-28, 01:57:05,VALID,1008.294,VALID,0.0,VALID,95.169,VALID,0.112,VALID,26.85,VALID,251.0,VALID,0.027,
2011-10-28, 01:58:05,VALID,1008.336,VALID,0.0,VALID,95.253,VALID,0.112,VALID,26.809,VALID,252.0,VALID,0.0,
2011-10-28, 01:59:05,VALID,1008.392,VALID,0.0,VALID,95.779,VALID,0.112,VALID,26.811,VALID,231.0,VALID,0.282,
2011-10-28, 02:00:05,VALID,1008.409,VALID,0.0,VALID,95.642,VALID,0.112,VALID,26.811,VALID,223.0,VALID,0.227,
2011-10-28, 02:01:05,VALID,1008.452,VALID,0.0,VALID,95.558,VALID,0.112,VALID,26.809,VALID,223.0,VALID,0.348,
2011-10-28, 02:02:05,VALID,1008.456,VALID,0.0,VALID,95.894,VALID,0.112,VALID,26.809,VALID,223.0,VALID,0.0,
2011-10-28, 02:03:05,VALID,1008.497,VALID,0.0,VALID,96.062,VALID,0.0,VALID,26.811,VALID,202.0,VALID,0.279,
2011-10-28, 02:04:05,VALID,1008.552,VALID,0.0,VALID,96.42,VALID,0.0,VALID,26.811,VALID,202.0,VALID,0.166,
2011-10-28, 02:05:05,VALID,1008.576,VALID,0.0,VALID,96.13,VALID,0.112,VALID,26.77,VALID,202.0,VALID,0.098,
2011-10-28, 02:06:05,VALID,1008.596,VALID,0.0,VALID,96.611,VALID,0.112,VALID,26.77,VALID,202.0,VALID,0.11,
2011-10-28, 02:07:05,VALID,1008.652,VALID,0.0,VALID,96.656,VALID,0.112,VALID,26.751,VALID,202.0,VALID,0.623,
2011-10-28, 02:08:05,VALID,1008.682,VALID,0.0,VALID,96.885,VALID,0.112,VALID,26.712,VALID,202.0,VALID,0.615,
2011-10-28, 02:09:05,VALID,1008.687,VALID,0.0,VALID,97.411,VALID,0.112,VALID,26.673,VALID,202.0,VALID,0.646,
2011-10-28, 02:10:05,VALID,1008.713,VALID,0.0,VALID,98.281,VALID,0.112,VALID,26.677,VALID,202.0,VALID,0.355,
2011-10-28, 02:11:05,VALID,1008.716,VALID,0.0,VALID,98.548,VALID,0.112,VALID,26.577,VALID,202.0,VALID,0.258,
2011-10-28, 02:12:05,VALID,1008.736,VALID,0.0,VALID,99.028,VALID,0.112,VALID,26.499,VALID,202.0,VALID,0.254,
2011-10-28, 02:13:05,VALID,1008.728,VALID,0.0,VALID,99.447,VALID,0.112,VALID,26.421,VALID,202.0,VALID,0.313,
2011-10-28, 02:14:05,VALID,1008.686,VALID,0.0,VALID,100.035,VALID,0.0,VALID,26.363,VALID,202.0,VALID,0.264,
2011-10-28, 02:15:05,VALID,1008.649,VALID,0.0,VALID,100.294,VALID,0.112,VALID,26.304,VALID,202.0,VALID,0.217,
2011-10-28, 02:16:05,VALID,1008.654,VALID,0.0,VALID,100.584,VALID,0.112,VALID,26.246,VALID,202.0,VALID,0.0,
2011-10-28, 02:17:05,VALID,1008.603,VALID,0.0,VALID,100.889,VALID,0.112,VALID,26.185,VALID,202.0,VALID,0.088,
2011-10-28, 02:18:05,VALID,1008.564,VALID,0.0,VALID,101.194,VALID,0.112,VALID,26.207,VALID,202.0,VALID,0.484,
2011-10-28, 02:19:05,VALID,1008.547,VALID,0.0,VALID,101.461,VALID,0.112,VALID,26.185,VALID,202.0,VALID,0.318,
2011-10-28, 02:20:05,VALID,1008.516,VALID,0.0,VALID,101.598,VALID,0.112,VALID,26.205,VALID,202.0,VALID,0.554,
2011-10-28, 02:21:05,VALID,1008.506,VALID,0.0,VALID,101.621,VALID,0.112,VALID,26.246,VALID,202.0,VALID,0.497,
2011-10-28, 02:22:05,VALID,1008.529,VALID,0.0,VALID,101.56,VALID,0.112,VALID,26.246,VALID,202.0,VALID,0.014,
2011-10-28, 02:23:05,VALID,1008.517,VALID,0.0,VALID,101.491,VALID,0.0,VALID,26.226,VALID,202.0,VALID,0.329,
2011-10-28, 02:24:05,VALID,1008.553,VALID,0.0,VALID,101.293,VALID,0.0,VALID,26.187,VALID,237.0,VALID,0.588,
2011-10-28, 02:25:05,VALID,1008.61,VALID,0.0,VALID,100.729,VALID,0.0,VALID,26.17,VALID,331.0,VALID,0.331,
2011-10-28, 02:26:05,VALID,1008.679,VALID,0.0,VALID,100.843,VALID,0.0,VALID,26.189,VALID,331.0,VALID,0.47,
2011-10-28, 02:27:05,VALID,1008.786,VALID,0.0,VALID,100.698,VALID,0.0,VALID,26.17,VALID,331.0,VALID,0.414,
2011-10-28, 02:28:05,VALID,1008.859,VALID,0.0,VALID,100.599,VALID,0.0,VALID,26.15,VALID,331.0,VALID,0.389,
2011-10-28, 02:29:05,VALID,1008.942,VALID,0.0,VALID,100.591,VALID,0.0,VALID,26.129,VALID,331.0,VALID,0.454,
2011-10-28, 02:30:05,VALID,1009.014,VALID,0.0,VALID,100.698,VALID,0.0,VALID,26.111,VALID,331.0,VALID,0.485,
2011-10-28, 02:31:05,VALID,1009.028,VALID,0.0,VALID,100.942,VALID,0.0,VALID,26.092,VALID,331.0,VALID,0.547,
2011-10-28, 02:32:05,VALID,1009.042,VALID,0.0,VALID,101.278,VALID,0.0,VALID,26.072,VALID,331.0,VALID,0.552,
2011-10-28, 02:33:05,VALID,1008.985,VALID,0.0,VALID,101.659,VALID,0.0,VALID,26.072,VALID,331.0,VALID,0.355,
2011-10-28, 02:34:05,VALID,1008.91,VALID,0.0,VALID,101.903,VALID,0.0,VALID,26.053,VALID,331.0,VALID,0.0,
2011-10-28, 02:35:05,VALID,1008.888,VALID,0.0,VALID,102.109,VALID,0.0,VALID,26.053,VALID,331.0,VALID,0.224,
2011-10-28, 02:36:05,VALID,1008.861,VALID,0.0,VALID,102.223,VALID,0.0,VALID,26.033,VALID,331.0,VALID,0.211,
2011-10-28, 02:37:05,VALID,1008.901,VALID,0.0,VALID,102.261,VALID,0.0,VALID,26.033,VALID,331.0,VALID,0.0,
2011-10-28, 02:38:05,VALID,1008.959,VALID,0.0,VALID,102.33,VALID,0.0,VALID,26.033,VALID,331.0,VALID,0.312,
2011-10-28, 02:39:05,VALID,1008.993,VALID,0.0,VALID,102.345,VALID,0.112,VALID,26.031,VALID,331.0,VALID,0.143,
2011-10-28, 02:40:05,VALID,1009.042,VALID,0.0,VALID,102.261,VALID,0.112,VALID,26.031,VALID,331.0,VALID,0.056,
2011-10-28, 02:41:05,VALID,1009.006,VALID,0.0,VALID,102.223,VALID,0.0,VALID,26.012,VALID,331.0,VALID,0.373,
2011-10-28, 02:42:05,VALID,1008.98,VALID,0.0,VALID,102.216,VALID,0.112,VALID,25.973,VALID,331.0,VALID,0.53,
2011-10-28, 02:43:05,VALID,1008.94,VALID,0.0,VALID,102.2,VALID,0.112,VALID,25.914,VALID,331.0,VALID,0.754,
2011-10-28, 02:44:05,VALID,1008.919,VALID,0.0,VALID,102.185,VALID,0.112,VALID,25.875,VALID,331.0,VALID,0.779,
2011-10-28, 02:45:05,VALID,1008.89,VALID,0.0,VALID,102.238,VALID,0.0,VALID,25.797,VALID,331.0,VALID,0.834,
2011-10-28, 02:46:05,VALID,1008.91,VALID,0.0,VALID,102.544,VALID,0.0,VALID,25.737,VALID,335.0,VALID,0.729,
2011-10-28, 02:47:05,VALID,1008.941,VALID,0.0,VALID,102.803,VALID,0.112,VALID,25.739,VALID,335.0,VALID,0.418,
2011-10-28, 02:48:05,VALID,1008.982,VALID,0.0,VALID,102.887,VALID,0.112,VALID,25.7,VALID,335.0,VALID,0.496,
2011-10-28, 02:49:05,VALID,1009.034,VALID,0.0,VALID,102.91,VALID,0.112,VALID,25.661,VALID,335.0,VALID,0.276,
2011-10-28, 02:50:05,VALID,1009.036,VALID,0.0,VALID,103.024,VALID,0.0,VALID,25.622,VALID,335.0,VALID,0.145,
2011-10-28, 02:51:05,VALID,1009.072,VALID,0.0,VALID,103.131,VALID,0.112,VALID,25.602,VALID,335.0,VALID,0.006,
2011-10-28, 02:52:05,VALID,1009.04,VALID,0.0,VALID,103.253,VALID,0.112,VALID,25.583,VALID,335.0,VALID,0.0,
2011-10-28, 02:53:05,VALID,1009.003,VALID,0.0,VALID,103.428,VALID,0.112,VALID,25.583,VALID,335.0,VALID,0.072,
2011-10-28, 02:54:05,VALID,1008.943,VALID,0.0,VALID,103.573,VALID,0.0,VALID,25.585,VALID,335.0,VALID,0.252,
2011-10-28, 02:55:05,VALID,1008.901,VALID,0.0,VALID,103.695,VALID,0.0,VALID,25.585,VALID,335.0,VALID,0.408,
2011-10-28, 02:56:05,VALID,1008.848,VALID,0.0,VALID,103.802,VALID,0.0,VALID,25.565,VALID,335.0,VALID,0.311,
2011-10-28, 02:57:05,VALID,1008.793,VALID,0.0,VALID,103.863,VALID,0.0,VALID,25.565,VALID,335.0,VALID,0.0,
2011-10-28, 02:58:05,VALID,1008.818,VALID,0.0,VALID,103.924,VALID,0.0,VALID,25.585,VALID,335.0,VALID,0.052,
2011-10-28, 02:59:05,VALID,1008.88,VALID,0.0,VALID,103.977,VALID,0.0,VALID,25.546,VALID,335.0,VALID,0.019,
2011-10-28, 03:00:05,VALID,1008.969,VALID,0.0,VALID,103.954,VALID,0.0,VALID,25.526,VALID,335.0,VALID,0.725,
2011-10-28, 03:01:05,VALID,1009.052,VALID,0.0,VALID,104.0,VALID,0.0,VALID,25.507,VALID,7.0,VALID,0.798,
2011-10-28, 03:02:05,VALID,1009.138,VALID,0.0,VALID,104.0,VALID,0.0,VALID,25.507,VALID,42.0,VALID,0.807,
2011-10-28, 03:03:05,VALID,1009.183,VALID,0.0,VALID,104.0,VALID,0.0,VALID,25.507,VALID,41.0,VALID,0.704,
2011-10-28, 03:04:05,VALID,1009.263,VALID,0.0,VALID,104.0,VALID,0.0,VALID,25.507,VALID,41.0,VALID,0.778,
2011-10-28, 03:05:05,VALID,1009.289,VALID,0.0,VALID,104.0,VALID,0.0,VALID,25.487,VALID,41.0,VALID,0.338,
2011-10-28, 03:06:05,VALID,1009.291,VALID,0.0,VALID,104.0,VALID,0.0,VALID,25.466,VALID,42.0,VALID,0.539,
2011-10-28, 03:07:05,VALID,1009.271,VALID,0.0,VALID,104.0,VALID,0.0,VALID,25.468,VALID,41.0,VALID,0.512,
2011-10-28, 03:08:05,VALID,1009.262,VALID,0.0,VALID,104.0,VALID,0.0,VALID,25.487,VALID,42.0,VALID,0.279,
2011-10-28, 03:09:05,VALID,1009.302,VALID,0.0,VALID,104.0,VALID,0.0,VALID,25.466,VALID,42.0,VALID,0.288,
2011-10-28, 03:10:05,VALID,1009.318,VALID,0.0,VALID,104.0,VALID,0.0,VALID,25.468,VALID,42.0,VALID,0.005,
2011-10-28, 03:11:05,VALID,1009.321,VALID,0.0,VALID,104.0,VALID,0.0,VALID,25.468,VALID,42.0,VALID,0.386,
2011-10-28, 03:12:05,VALID,1009.359,VALID,0.0,VALID,104.0,VALID,0.0,VALID,25.468,VALID,41.0,VALID,0.356,
2011-10-28, 03:13:05,VALID,1009.415,VALID,0.0,VALID,104.0,VALID,0.0,VALID,25.468,VALID,42.0,VALID,0.275,
2011-10-28, 03:14:05,VALID,1009.435,VALID,0.0,VALID,104.0,VALID,0.0,VALID,25.487,VALID,42.0,VALID,0.004,
2011-10-28, 03:15:05,VALID,1009.458,VALID,0.0,VALID,104.0,VALID,0.0,VALID,25.487,VALID,42.0,VALID,0.193,
2011-10-28, 03:16:05,VALID,1009.528,VALID,0.0,VALID,104.0,VALID,0.0,VALID,25.487,VALID,42.0,VALID,0.218,
2011-10-28, 03:17:05,VALID,1009.559,VALID,0.0,VALID,104.0,VALID,0.0,VALID,25.487,VALID,42.0,VALID,0.221,
2011-10-28, 03:18:05,VALID,1009.56,VALID,0.0,VALID,104.0,VALID,0.0,VALID,25.487,VALID,41.0,VALID,0.0,
2011-10-28, 03:19:05,VALID,1009.511,VALID,0.0,VALID,104.0,VALID,0.0,VALID,25.485,VALID,42.0,VALID,0.001,
2011-10-28, 03:20:05,VALID,1009.449,VALID,0.0,VALID,104.0,VALID,0.0,VALID,25.507,VALID,42.0,VALID,0.008,
2011-10-28, 03:21:05,VALID,1009.372,VALID,0.0,VALID,104.0,VALID,0.0,VALID,25.526,VALID,42.0,VALID,0.082,
2011-10-28, 03:22:04,VALID,1009.34,VALID,0.0,VALID,104.0,VALID,0.0,VALID,25.505,VALID,41.0,VALID,0.056,
2011-10-28, 03:23:04,VALID,1009.316,VALID,0.0,VALID,104.0,VALID,0.0,VALID,25.524,VALID,42.0,VALID,0.0,
2011-10-28, 03:24:04,VALID,1009.325,VALID,0.0,VALID,104.0,VALID,0.0,VALID,25.565,VALID,198.0,VALID,0.698,
2011-10-28, 03:25:04,VALID,1009.323,VALID,0.0,VALID,104.0,VALID,0.0,VALID,25.585,VALID,190.0,VALID,0.582,
2011-10-28, 03:26:04,VALID,1009.359,VALID,0.0,VALID,104.0,VALID,0.0,VALID,25.624,VALID,162.0,VALID,0.673,
2011-10-28, 03:27:04,VALID,1009.394,VALID,0.0,VALID,104.0,VALID,0.0,VALID,25.624,VALID,162.0,VALID,0.23,
2011-10-28, 03:28:04,VALID,1009.363,VALID,0.0,VALID,104.0,VALID,0.0,VALID,25.624,VALID,163.0,VALID,0.405,
2011-10-28, 03:29:04,VALID,1009.367,VALID,0.0,VALID,104.0,VALID,0.0,VALID,25.643,VALID,163.0,VALID,0.451,
2011-10-28, 03:30:04,VALID,1009.308,VALID,0.0,VALID,104.0,VALID,0.0,VALID,25.643,VALID,162.0,VALID,0.297,
2011-10-28, 03:31:04,VALID,1009.254,VALID,0.0,VALID,104.0,VALID,0.0,VALID,25.663,VALID,163.0,VALID,0.414,
2011-10-28, 03:32:04,VALID,1009.194,VALID,0.0,VALID,104.0,VALID,0.0,VALID,25.665,VALID,261.0,VALID,0.509,
2011-10-28, 03:33:04,VALID,1009.172,VALID,0.0,VALID,104.0,VALID,0.0,VALID,25.663,VALID,219.0,VALID,0.762,
2011-10-28, 03:34:04,VALID,1009.175,VALID,0.0,VALID,104.0,VALID,0.0,VALID,25.682,VALID,214.0,VALID,0.406,
2011-10-28, 03:35:04,VALID,1009.206,VALID,0.0,VALID,104.0,VALID,0.0,VALID,25.702,VALID,214.0,VALID,0.241,
2011-10-28, 03:36:04,VALID,1009.174,VALID,0.0,VALID,104.0,VALID,0.0,VALID,25.721,VALID,214.0,VALID,0.145,
2011-10-28, 03:37:04,VALID,1009.159,VALID,0.0,VALID,104.0,VALID,0.0,VALID,25.721,VALID,214.0,VALID,0.0,
2011-10-28, 03:38:04,VALID,1009.149,VALID,0.0,VALID,104.0,VALID,0.0,VALID,25.721,VALID,214.0,VALID,0.002,